Wind_Speed
39 40 38 38 38 38 39 37 36 35 36 36 36 35 34 33 33 34 35 37 38 39 39 39 39 39 39 40 42 43 45 46 47 48 48 48 47 46 44 42 40 38 37 35 34 33 33 32 34 36 38 38 38 38 38 38 38 37 38 38 38 38 38 38 38 38 39 41 44 46 46 45 41 38 35 36 38 42 48 54 59 60 60 57 52 50
38 38 38 38 38 38 39 38 36 35 36 36 36 35 34 34 33 34 35 37 39 40 40 40 40 41 42 44 45 46 47 47 48 48 48 47 46 46 45 43 42 41 40 39 39 38 36 34 34 36 38 39 40 40 40 39 39 39 39 40 40 40 40 40 39 38 38 38 40 42 43 44 42 39 36 35 36 39 42 48 55 60 62 61 56 52
38 38 39 39 38 39 39 39 38 37 37 36 36 35 35 35 35 35 35 38 40 41 41 41 41 42 43 45 46 46 46 46 47 47 46 45 45 44 44 44 42 42 42 43 43 42 39 36 35 36 39 40 41 41 40 40 40 40 41 41 42 42 42 42 41 40 39 39 39 39 40 41 41 39 37 36 37 38 39 42 48 55 60 63 61 58
39 39 40 39 38 39 40 39 39 38 37 37 37 36 36 36 36 36 36 37 39 40 42 42 42 42 42 43 43 43 43 43 43 43 43 43 42 42 43 43 42 42 42 44 46 45 43 39 38 38 40 41 41 41 40 40 41 42 42 43 43 43 43 43 42 41 40 40 39 39 39 39 39 38 37 37 38 39 40 40 42 47 53 58 61 61
40 40 39 38 38 38 39 39 37 37 36 36 36 36 35 36 36 36 36 36 38 40 41 41 41 40 40 39 39 39 39 40 42 42 43 42 42 43 44 44 43 42 42 44 46 47 46 43 41 41 42 42 42 41 41 41 42 43 44 44 45 45 44 44 43 42 42 41 40 40 39 38 38 37 37 37 38 40 40 40 40 42 45 50 55 58
40 39 38 37 38 39 39 37 36 36 35 35 35 34 34 35 35 36 36 36 37 38 38 38 38 38 38 38 38 38 40 42 43 44 45 46 46 46 47 46 44 43 43 44 46 48 47 46 45 44 44 43 43 42 42 41 42 43 44 45 45 45 45 45 44 44 43 42 42 41 40 39 38 37 37 37 38 39 40 41 41 41 42 44 48 52
39 37 36 37 39 41 41 38 37 35 34 33 34 34 34 35 35 35 35 35 35 36 37 37 37 37 38 39 39 40 42 44 45 47 48 48 48 48 48 46 44 43 42 44 46 47 48 48 47 46 46 45 44 43 43 42 42 43 44 45 46 46 46 46 45 45 44 43 43 42 42 41 40 39 38 37 38 39 40 41 42 42 41 42 44 47
40 39 39 40 41 40 39 37 35 34 34 33 34 36 36 35 35 35 35 35 35 35 36 37 37 38 39 39 39 41 43 45 46 47 48 48 48 47 46 44 43 42 42 43 45 47 48 49 49 48 47 46 45 44 43 43 43 43 44 44 45 46 46 46 46 46 45 45 44 43 43 43 42 41 40 39 38 39 40 42 43 43 43 42 43 44
41 41 42 41 39 37 34 34 34 34 34 35 36 36 36 36 35 34 34 34 34 35 35 36 37 37 38 38 38 39 42 43 44 45 45 45 44 43 42 41 41 40 40 41 43 45 48 49 50 49 48 47 46 45 44 44 44 44 44 44 45 45 46 47 47 47 47 46 46 45 44 44 44 43 42 41 40 39 40 43 44 45 44 43 43 44
41 41 41 39 35 32 31 32 34 35 35 37 38 38 37 36 35 34 33 34 34 34 33 34 35 35 36 36 36 37 39 40 40 41 41 41 40 40 39 39 39 39 39 40 42 44 46 48 49 49 48 47 47 46 45 45 45 45 45 45 45 46 46 47 47 47 48 47 47 47 46 46 45 45 44 42 41 40 41 43 45 46 45 44 44 45
38 39 39 37 35 32 32 33 35 36 37 38 39 38 37 36 35 34 34 35 34 33 33 33 33 33 33 33 33 33 34 35 36 37 37 37 38 38 37 37 37 37 37 39 40 42 45 47 48 49 49 48 47 47 47 47 47 47 46 46 46 46 46 47 47 48 48 48 49 48 48 48 47 46 45 44 43 42 41 43 46 47 46 45 45 46
36 36 36 36 36 35 35 35 36 37 37 36 36 35 34 34 34 34 35 35 35 34 33 33 33 33 32 32 32 32 32 32 32 33 34 35 35 34 33 33 33 34 36 37 38 40 43 45 47 48 48 48 48 48 48 48 48 48 48 47 47 47 47 47 48 48 49 49 50 50 50 50 49 48 47 46 44 43 42 43 45 47 47 46 46 46
35 34 34 35 36 36 36 35 35 34 33 33 33 32 33 33 33 33 34 35 35 34 33 33 33 33 33 33 32 32 31 31 32 32 32 33 32 30 29 29 31 34 35 35 36 38 40 42 44 46 47 48 48 49 49 49 49 49 48 48 48 48 48 48 48 49 49 50 50 51 51 51 51 50 49 48 46 45 43 43 45 46 47 47 46 47
34 34 34 35 35 35 35 34 33 33 33 33 32 32 33 32 32 32 32 34 34 33 32 32 33 33 32 32 32 32 31 31 32 32 33 32 30 28 27 29 32 34 34 33 32 34 36 38 40 43 45 46 47 48 48 49 48 48 48 48 48 48 48 48 49 49 50 50 51 51 52 52 52 52 51 50 49 47 45 44 45 46 47 47 47 48
34 33 33 33 33 33 33 33 33 34 34 34 33 33 32 32 32 32 33 33 33 32 31 32 33 33 32 32 31 32 32 32 33 33 32 30 28 27 28 30 33 33 32 30 30 30 32 33 36 39 41 43 45 46 46 46 47 47 47 47 48 48 49 49 49 50 50 51 51 52 52 52 53 53 53 53 52 50 48 46 46 46 47 48 48 49
34 34 33 33 32 32 32 32 33 34 35 34 33 32 32 31 31 32 33 33 32 31 31 33 33 33 33 32 31 31 30 31 31 30 29 27 26 27 29 31 31 30 29 29 29 29 29 30 32 35 37 39 41 42 43 43 44 45 46 47 48 48 49 50 50 51 51 51 52 52 52 53 53 54 55 55 55 53 51 49 48 47 47 48 48 49
36 35 35 35 34 34 34 34 34 35 35 34 33 32 31 31 31 31 32 32 31 30 31 31 31 30 30 30 29 28 27 28 28 28 27 27 28 28 29 29 28 28 28 28 28 27 27 28 29 31 33 35 36 38 39 41 42 43 45 46 47 49 50 50 51 52 52 52 52 52 53 53 53 55 56 57 57 56 55 52 50 49 48 48 49 50
37 37 36 36 36 36 37 36 35 34 34 33 33 32 31 31 31 32 32 32 32 31 30 30 30 29 29 28 27 26 25 26 27 27 27 28 29 29 28 27 27 27 28 28 27 26 26 27 28 28 29 31 32 34 36 38 40 42 43 45 47 48 50 51 52 52 52 52 52 52 52 52 53 54 56 57 59 59 58 56 53 51 49 49 49 50
38 37 36 35 35 36 37 38 36 34 32 31 31 30 30 32 32 32 33 33 32 31 31 31 31 31 30 30 29 27 26 27 27 27 28 29 29 27 26 25 26 27 28 29 28 27 26 26 26 27 27 28 29 31 33 35 37 39 41 43 45 47 49 50 51 51 51 51 51 51 51 52 52 53 55 57 59 60 60 59 56 54 51 50 50 50
41 38 36 36 36 36 37 38 37 35 32 30 30 30 32 33 34 34 34 34 33 32 32 32 33 33 32 31 30 28 27 27 27 28 29 29 28 26 25 26 27 28 30 30 29 27 25 25 26 27 27 28 29 30 32 33 35 37 39 41 43 45 46 48 48 49 49 50 50 50 51 51 52 53 54 56 59 60 61 61 59 56 53 51 50 51
45 43 41 40 38 38 38 38 38 37 35 34 33 34 36 37 37 35 34 33 32 32 32 33 34 33 32 32 30 29 28 28 29 29 30 30 29 28 27 27 27 28 28 28 27 26 25 27 28 28 28 28 29 30 31 32 34 35 37 39 41 42 44 45 46 47 47 48 48 49 50 51 52 53 54 56 59 61 62 62 61 58 56 53 52 51
48 46 45 44 43 42 41 41 41 40 40 40 40 40 40 39 36 34 32 31 30 30 30 31 32 32 32 32 32 32 32 31 30 29 29 28 29 29 27 25 25 25 26 27 26 26 27 29 30 29 29 29 29 29 30 31 33 34 36 37 39 40 42 43 44 45 46 47 48 49 50 52 53 53 54 56 58 61 63 63 62 60 57 55 53 52
50 49 49 48 48 47 46 45 45 45 45 44 43 41 38 35 32 30 30 29 29 31 31 31 31 32 32 33 34 34 34 35 34 32 29 28 28 26 23 23 24 27 29 29 28 28 31 32 32 31 30 29 29 29 30 31 32 33 34 36 37 38 40 41 43 44 45 46 47 48 50 51 52 53 54 56 58 60 62 63 63 61 59 56 54 52
49 49 49 48 48 48 47 47 47 46 46 45 43 40 37 33 30 29 29 31 34 36 38 39 38 37 37 35 33 32 32 33 33 31 29 28 27 25 23 24 26 29 31 30 29 30 32 33 33 32 31 30 30 30 30 31 32 32 33 34 35 37 39 40 42 44 45 46 46 46 47 49 51 53 54 56 57 59 61 62 62 61 59 57 55 53
47 47 47 46 46 46 44 44 43 43 43 42 40 38 36 34 32 31 32 34 37 39 41 41 41 41 41 39 36 33 30 28 27 27 27 26 25 25 26 27 29 31 32 31 30 30 32 33 33 32 31 31 30 30 30 31 31 32 33 34 35 37 38 40 42 43 44 44 43 43 44 46 49 51 53 55 57 58 60 61 61 61 59 57 55 53
48 47 46 46 45 44 43 43 42 42 42 41 39 38 37 35 34 34 35 37 38 39 38 37 38 38 39 38 36 34 31 28 27 28 28 26 26 28 30 33 32 32 32 30 29 31 33 33 33 33 32 32 31 30 30 31 31 32 33 34 35 36 38 39 41 42 42 42 40 40 40 43 46 49 52 54 56 57 58 59 59 59 57 56 55 53
49 49 48 47 46 45 45 44 44 43 43 43 42 41 40 38 37 37 38 38 38 37 36 36 36 36 35 34 33 32 30 28 29 32 32 30 29 30 33 35 34 32 30 29 30 32 33 34 33 33 33 33 32 31 31 31 32 32 33 34 34 35 37 38 40 41 41 40 38 37 37 39 43 47 50 53 55 56 57 57 56 56 55 54 53 52
50 49 49 48 47 47 46 46 45 45 45 45 45 44 43 42 40 40 40 38 37 35 35 35 34 33 32 32 32 31 29 28 30 33 33 30 30 32 34 34 32 30 28 29 31 33 33 33 33 33 33 33 32 32 32 32 32 32 32 33 33 34 35 37 38 39 39 39 37 34 33 35 39 43 47 51 53 54 54 53 52 51 50 50 50 49
49 49 49 48 47 46 46 45 45 46 46 46 46 45 44 44 44 44 43 40 38 36 35 35 35 34 33 33 32 31 30 28 29 31 32 30 31 33 33 32 31 30 29 29 30 31 31 31 32 32 32 33 33 32 32 32 32 31 31 31 32 33 33 35 36 37 37 36 34 32 30 30 33 37 42 45 47 47 47 46 45 44 44 44 45 45
47 47 48 47 47 46 45 44 44 44 45 45 45 45 45 46 47 48 48 45 42 39 38 38 37 36 35 33 32 31 30 29 28 28 30 30 31 33 32 32 32 31 30 27 25 23 24 27 29 29 30 31 31 31 32 31 31 30 30 30 30 31 31 31 31 32 32 32 31 29 27 26 28 31 34 37 38 38 38 38 37 38 39 40 41 43
44 45 45 45 45 44 44 43 43 43 43 43 43 44 45 46 47 48 49 48 46 44 42 41 39 38 37 33 30 29 29 28 27 26 28 29 30 31 32 31 31 31 30 27 22 18 17 19 23 27 27 28 28 28 29 29 28 28 27 27 27 28 28 28 27 27 28 27 27 26 25 24 25 26 28 30 31 31 32 32 33 35 37 38 41 43
43 42 42 41 41 41 41 42 42 41 41 41 42 42 43 44 45 47 48 48 48 47 45 43 42 41 40 36 34 32 31 28 27 27 28 28 29 31 32 31 30 30 30 29 25 21 15 14 17 22 23 24 25 25 25 25 25 25 25 25 25 25 25 25 24 24 23 22 21 20 20 21 23 25 27 28 28 28 29 30 32 34 37 39 41 43
42 40 40 39 39 39 40 41 41 41 42 42 42 41 40 41 42 43 45 46 47 47 47 45 43 41 41 40 39 37 35 32 31 31 30 29 30 31 32 31 30 29 29 28 29 27 22 17 16 18 18 20 21 22 22 23 23 23 23 22 21 21 21 21 20 19 18 16 14 14 15 17 20 23 25 27 27 27 27 28 31 34 37 39 41 43
42 41 41 40 39 40 41 41 42 42 42 42 42 41 40 39 39 39 40 41 43 44 45 44 43 42 41 40 39 39 37 35 35 34 34 33 33 33 33 31 30 28 28 28 29 30 27 23 19 16 16 17 18 19 19 19 20 21 22 20 19 17 17 16 15 14 13 12 11 10 13 15 17 20 22 24 25 26 26 28 30 34 37 39 41 42
41 41 41 41 41 41 41 40 40 40 41 41 41 41 40 40 39 38 38 39 39 40 41 42 43 43 42 41 40 39 38 36 35 35 36 36 35 35 33 32 30 29 28 29 30 29 26 23 19 16 15 15 15 15 16 16 17 18 19 18 17 15 14 13 12 11 10 11 11 11 15 18 19 20 21 23 25 27 28 30 32 34 36 38 39 40
40 40 40 40 39 39 40 40 39 39 40 40 40 40 40 40 39 39 38 38 38 38 39 40 40 41 42 42 42 42 41 39 37 36 37 38 38 37 34 33 32 30 28 29 31 31 27 22 19 17 16 15 13 12 13 14 15 15 15 15 14 14 14 13 13 13 12 13 14 16 21 24 25 25 26 26 27 29 31 33 34 35 36 37 38 39
40 40 38 38 38 37 38 39 39 39 40 40 40 40 39 38 36 35 35 35 35 35 36 37 38 39 39 40 42 43 44 43 41 40 41 42 41 38 35 34 33 32 30 30 31 31 28 23 20 18 16 15 14 14 13 13 13 14 14 13 13 13 14 15 16 18 18 19 21 23 26 27 29 30 31 30 31 33 34 35 35 36 37 38 38 39
40 40 39 38 38 38 38 39 39 40 41 41 41 39 36 34 33 32 32 33 34 34 34 34 36 37 37 39 40 42 43 43 43 43 44 44 43 39 36 33 32 31 31 31 32 31 27 24 22 20 18 18 17 16 16 16 16 16 17 16 16 17 18 20 19 18 21 25 28 29 29 30 32 34 34 35 35 36 37 37 37 38 39 40 40 40
36 36 37 37 37 37 38 39 40 40 40 38 36 34 33 33 33 34 35 35 36 36 37 37 37 37 38 39 40 41 41 42 43 44 45 45 43 40 35 32 31 30 30 30 31 29 27 25 24 22 21 20 19 19 19 19 19 20 21 21 21 22 23 24 24 25 27 29 30 31 32 33 35 36 37 37 38 39 40 40 40 41 42 43 43 43
35 36 36 37 37 37 38 38 38 37 36 34 33 33 33 34 35 37 37 37 37 37 37 36 36 37 37 38 39 40 40 40 41 42 43 43 41 38 35 31 30 30 29 29 28 27 26 25 25 24 23 23 23 22 21 21 21 22 22 23 24 25 25 26 28 29 31 31 32 33 34 35 37 38 39 40 41 42 43 44 44 44 45 45 46 47
32 32 33 33 33 33 33 34 34 33 32 32 32 33 34 35 36 37 37 36 35 34 34 33 33 34 35 35 36 36 36 36 36 37 37 37 37 35 33 31 30 30 30 29 28 27 26 26 25 25 24 25 25 25 24 24 23 23 24 26 27 27 27 28 29 31 32 33 34 35 36 37 38 39 41 42 42 43 45 46 46 47 48 48 48 49
29 28 28 28 28 29 30 31 31 31 31 31 32 34 35 35 35 34 33 32 31 30 29 29 29 29 29 29 29 29 28 28 29 30 31 31 31 31 30 29 29 30 30 30 29 27 27 26 27 27 26 27 27 27 27 26 26 26 27 28 29 29 29 30 30 31 33 34 35 36 37 38 39 40 41 42 43 44 45 46 47 48 48 49 50 51
25 26 27 27 27 28 29 29 30 31 32 33 33 34 33 33 31 29 27 26 25 24 24 24 24 24 23 22 21 21 21 22 23 24 25 26 27 27 28 28 28 29 29 30 30 29 28 28 28 28 28 28 28 29 30 30 29 29 29 29 31 32 33 32 32 33 35 36 37 38 39 40 41 42 43 43 44 44 45 46 47 47 48 50 51 52
25 27 28 28 29 29 30 31 32 32 32 32 30 29 28 26 24 22 22 22 22 22 21 21 21 21 20 19 18 18 19 19 20 21 21 22 24 25 27 27 27 27 28 29 30 29 29 29 29 29 29 29 30 31 32 32 32 32 31 31 32 34 36 36 35 36 37 38 38 39 40 41 42 43 43 44 44 44 44 45 45 46 47 48 50 51
26 27 27 28 29 30 30 30 30 30 28 26 24 23 22 20 19 19 20 21 22 21 21 21 20 19 19 18 18 19 19 19 19 20 20 21 22 24 26 26 26 27 27 28 29 29 30 30 30 29 30 30 31 32 33 33 33 34 34 34 35 36 37 38 38 38 39 39 40 40 41 42 43 44 44 44 44 44 43 43 43 43 44 45 46 47
25 26 26 27 27 27 27 26 25 23 21 19 18 18 18 18 19 20 21 22 22 22 21 20 20 20 20 20 20 21 21 21 21 21 21 21 22 23 25 25 26 27 27 28 29 29 30 30 30 30 30 31 32 33 34 34 35 35 36 36 36 38 39 39 39 40 40 40 40 41 41 42 43 44 45 45 45 44 43 42 42 42 41 42 42 43
22 23 23 23 22 21 20 19 17 16 15 16 16 17 18 19 20 20 21 21 22 22 21 20 20 20 22 22 23 23 24 24 24 23 23 23 23 23 24 25 25 26 27 28 29 29 29 30 30 30 31 33 34 34 34 35 36 36 36 36 37 38 39 39 39 39 39 40 40 40 40 41 42 44 44 44 44 43 43 42 41 41 40 40 40 40
16 17 17 16 15 14 13 13 13 14 15 16 16 16 17 19 19 20 21 21 21 22 22 21 21 22 23 24 24 25 25 26 26 25 25 25 24 24 24 25 26 26 27 29 29 30 30 30 30 30 31 33 34 35 35 35 36 36 36 36 37 38 38 37 37 37 37 38 38 38 38 39 40 41 42 42 42 42 42 41 40 39 39 39 39 38
10 10 10 10 10 10 11 12 13 14 15 16 16 17 17 18 19 20 21 21 21 22 22 22 23 24 25 25 25 25 26 27 27 27 26 25 25 25 25 26 26 27 28 29 29 30 31 31 31 31 31 32 34 35 35 35 35 35 35 35 36 36 36 36 35 35 36 36 36 36 36 37 37 38 39 40 41 41 40 40 39 38 37 36 36 36
6 7 8 9 10 11 12 13 14 15 16 16 17 18 18 19 19 20 21 21 21 22 22 23 24 25 25 25 25 26 26 27 27 27 27 26 25 26 26 27 28 29 30 30 30 30 30 30 31 31 31 32 32 33 34 34 34 34 34 34 35 35 35 35 34 34 34 35 34 34 35 35 35 35 36 38 40 40 39 39 38 37 36 35 34 34
7 8 9 11 12 13 14 15 16 17 17 18 18 19 19 20 20 20 21 21 22 22 23 23 24 25 25 25 25 25 26 27 27 28 28 27 26 27 28 28 29 30 31 31 31 31 31 31 30 29 29 30 31 32 32 33 33 33 33 33 33 33 34 34 33 33 33 34 34 34 34 35 35 35 35 37 38 39 38 38 37 35 34 34 33 33
Wind_Direction
272 273 274 275 275 275 274 273 273 273 273 273 272 272 272 270 270 270 272 273 274 274 274 274 273 272 271 270 270 272 273 273 271 269 267 267 267 267 265 262 259 256 255 254 252 251 251 251 251 252 254 256 257 256 255 254 253 253 253 254 256 257 259 260 260 261 261 261 260 260 260 262 265 269 270 269 265 260 253 246 243 241 242 242 241 239
271 272 273 273 273 273 274 273 273 272 272 272 272 271 271 270 270 269 270 271 272 273 272 272 272 271 270 270 271 274 275 275 273 272 270 269 269 268 267 264 260 256 253 252 251 251 251 250 249 250 252 255 256 256 256 255 254 254 253 253 253 254 255 256 257 257 257 258 259 259 259 260 262 266 271 274 274 270 263 254 248 245 245 245 244 242
269 270 271 271 271 272 272 273 272 272 271 271 271 271 270 270 269 269 269 271 272 272 272 272 271 271 271 271 274 276 277 275 274 272 272 271 270 270 269 266 261 257 253 252 253 254 255 253 252 251 252 253 254 255 254 254 255 255 254 254 254 254 254 254 254 254 254 254 255 256 257 258 260 263 269 273 274 273 270 264 256 251 248 247 247 245
267 268 269 270 270 270 270 271 272 271 271 271 270 270 270 269 268 268 268 270 271 273 273 273 272 272 272 273 276 277 277 275 273 272 271 270 269 268 268 266 263 258 253 252 253 255 257 256 254 252 252 252 253 253 253 254 254 254 255 255 254 254 254 254 254 253 252 252 251 251 252 254 256 260 265 269 271 271 271 269 264 258 253 250 248 246
266 265 266 268 269 269 270 270 270 270 270 270 270 269 269 268 268 268 268 268 270 272 273 273 273 273 273 273 275 275 275 273 272 270 269 268 266 266 266 266 265 261 255 251 251 253 255 255 255 253 252 252 252 252 252 253 253 253 254 254 255 255 255 254 254 253 252 250 249 248 248 249 251 255 259 264 267 269 269 269 267 263 259 254 250 246
265 264 264 266 267 269 270 269 268 269 270 270 270 269 268 268 267 267 266 267 268 270 271 271 271 271 271 270 270 271 271 272 271 271 270 269 268 267 267 268 267 263 258 253 251 251 252 253 254 253 253 252 252 252 252 252 252 252 253 254 254 255 255 255 254 253 252 250 249 247 246 245 246 249 253 259 263 266 268 268 267 265 262 257 252 247
266 264 264 265 266 267 267 266 266 267 268 270 270 271 270 269 267 266 265 265 266 269 270 270 269 269 268 268 267 268 270 272 273 273 272 272 271 271 271 270 268 265 261 256 252 251 251 252 252 253 253 252 252 252 252 252 252 252 252 253 254 255 255 255 255 254 253 251 249 247 245 244 244 245 248 253 258 263 266 266 266 264 262 259 254 249
269 268 267 265 264 263 262 261 262 264 267 269 270 271 270 268 267 265 265 265 266 267 269 270 269 268 267 267 267 268 271 273 275 275 275 275 274 274 273 271 269 266 263 258 254 252 251 251 252 252 253 252 252 252 252 252 252 252 252 253 254 255 255 255 255 255 254 252 250 248 246 244 243 243 244 248 253 259 263 264 264 263 261 258 253 248
272 272 270 266 261 258 257 258 260 263 266 268 268 268 266 266 266 265 265 265 265 266 267 268 268 268 268 268 268 270 273 275 276 276 276 275 275 274 273 272 270 268 264 260 257 254 252 252 252 252 252 252 252 252 252 252 252 253 254 254 255 255 255 255 255 255 254 253 251 249 246 244 243 242 242 245 249 255 260 262 262 261 259 257 252 247
270 271 271 267 262 257 258 261 264 266 268 267 266 264 263 263 264 265 265 265 265 265 265 265 266 267 269 269 270 271 274 275 276 276 275 275 275 274 273 272 270 267 264 261 258 255 253 253 252 252 252 253 253 253 253 253 254 255 256 256 256 255 255 255 255 254 254 253 251 249 246 244 242 241 241 242 246 251 256 260 261 259 258 256 252 246
268 268 268 268 266 265 264 266 268 269 269 266 263 261 260 261 262 263 264 265 265 265 264 264 264 266 267 269 269 270 272 274 275 275 274 274 275 276 275 273 269 265 262 260 258 256 255 254 253 253 253 254 254 254 254 255 256 257 257 257 257 256 255 255 254 254 254 253 251 249 247 244 242 241 240 241 243 247 252 257 259 258 257 255 251 246
266 266 266 267 268 268 268 268 268 268 266 263 260 259 259 260 261 262 262 263 264 264 264 264 264 265 265 267 268 269 270 271 271 271 272 272 273 273 272 270 267 265 263 261 259 257 255 254 254 254 254 255 255 255 256 257 257 258 258 258 258 256 255 254 254 254 253 253 252 250 248 246 243 241 240 240 241 244 248 253 256 257 256 254 250 246
265 264 264 263 264 264 265 265 264 262 259 257 257 258 259 261 261 261 261 262 263 263 264 264 265 265 265 266 267 268 269 270 270 269 268 267 267 267 266 265 265 267 267 266 262 258 256 255 255 255 255 255 255 256 257 257 258 259 259 258 257 256 255 254 254 253 253 253 253 252 250 248 245 243 241 240 240 241 244 249 253 255 254 252 249 246
265 264 262 260 259 258 258 258 257 256 255 256 256 258 260 261 261 261 260 261 262 263 263 264 265 265 266 265 265 266 267 268 268 267 265 262 261 261 262 264 268 272 274 271 266 261 257 256 255 255 254 254 255 255 256 257 258 258 258 257 256 255 254 254 253 253 253 253 253 253 252 251 248 245 242 240 239 239 241 245 249 251 252 251 248 245
265 264 263 260 257 255 254 253 253 254 255 256 257 259 259 260 259 259 259 260 261 262 262 263 264 265 265 265 265 265 265 266 265 263 261 259 259 260 264 268 272 275 275 272 267 262 259 257 256 255 254 254 254 255 255 256 256 256 256 256 255 254 254 253 253 253 253 253 253 254 253 253 251 248 245 242 240 239 239 241 244 247 249 248 246 244
264 264 264 263 262 259 257 254 253 254 255 256 256 256 257 257 257 257 258 258 259 260 260 260 261 264 265 266 266 265 264 263 263 261 260 261 262 265 268 270 271 271 271 270 268 265 263 260 257 255 254 254 254 254 254 254 254 254 254 254 254 254 253 253 253 253 253 253 253 254 254 254 253 251 248 245 242 240 238 238 240 242 245 245 244 242
262 262 262 263 264 264 263 260 258 255 254 254 254 254 255 255 255 256 255 256 256 255 256 256 259 262 265 267 266 263 261 261 261 262 264 266 267 268 268 268 266 265 267 270 272 272 270 265 260 257 255 254 254 254 254 253 253 253 253 253 253 253 253 253 254 254 254 254 254 254 254 255 254 253 250 248 244 241 239 237 237 238 240 242 242 241
260 259 259 260 262 263 264 264 261 257 253 252 253 254 254 254 254 254 253 253 253 253 253 253 255 258 263 265 264 261 259 259 259 261 263 265 266 267 267 265 264 264 268 273 275 276 276 271 266 262 259 257 256 256 254 254 253 253 253 253 254 254 254 254 254 255 255 255 255 255 255 255 255 255 253 250 247 244 240 237 235 235 236 238 239 239
259 258 257 257 259 261 262 262 261 257 254 252 252 253 254 256 255 253 252 251 250 251 252 252 254 256 259 261 261 261 259 257 257 258 261 262 263 263 264 265 266 268 271 276 279 281 279 274 270 268 266 264 261 259 257 256 256 255 255 255 256 256 256 256 257 257 257 257 257 257 257 257 257 256 255 252 249 246 242 238 235 233 233 234 236 236
259 257 257 257 258 259 260 259 258 257 256 255 255 256 256 257 255 252 249 248 249 249 250 250 252 255 257 259 260 260 259 258 257 258 258 259 260 261 264 268 268 268 270 275 279 281 278 275 275 275 273 270 267 264 262 260 260 259 259 259 259 259 260 260 260 260 259 259 259 259 259 258 258 257 255 253 250 247 243 239 236 233 231 232 233 234
258 258 258 258 258 259 258 257 257 256 258 259 259 258 255 254 252 249 246 246 247 248 249 249 252 255 257 259 260 260 259 258 257 257 258 259 261 264 268 269 268 267 269 275 278 278 275 276 279 280 278 275 271 268 266 264 263 263 262 263 263 264 264 264 263 263 262 262 261 261 261 260 259 257 255 253 250 247 243 240 237 234 232 231 231 232
258 258 258 259 258 258 258 258 257 257 258 259 259 257 253 250 247 245 244 244 246 249 251 253 254 256 258 259 259 259 258 257 256 257 259 260 262 265 267 267 268 270 274 277 278 276 276 278 280 281 280 277 274 271 269 267 266 266 266 266 267 268 268 267 266 265 264 264 264 264 263 261 259 257 255 253 250 247 244 241 238 236 234 232 231 231
256 257 258 259 259 258 258 258 259 259 259 259 258 255 253 249 247 247 249 252 256 259 262 264 265 265 263 260 259 258 257 255 254 255 257 259 261 262 264 267 272 275 277 279 278 277 277 279 281 281 280 277 275 272 270 269 268 268 269 270 271 271 271 269 268 267 266 266 265 265 263 261 259 256 254 252 249 247 244 242 240 238 237 235 233 232
254 256 257 257 258 257 257 258 258 259 259 259 258 257 256 256 257 259 262 266 269 271 273 274 275 275 273 269 266 263 261 257 254 253 254 257 260 263 265 269 273 276 277 278 277 276 276 278 280 280 278 276 273 271 269 268 269 270 271 273 273 273 272 271 269 268 268 268 267 265 263 260 257 255 253 251 248 246 244 243 242 241 240 238 236 234
254 254 255 255 255 255 255 255 255 255 256 256 257 258 260 264 267 270 272 273 274 275 275 275 275 274 274 273 272 272 270 267 262 259 259 260 264 267 269 271 273 274 276 277 275 274 274 276 277 276 274 272 269 268 267 267 268 270 272 273 274 274 274 273 271 271 271 271 269 266 262 258 254 252 251 249 247 246 245 244 244 244 243 241 239 237
257 256 256 256 255 255 254 254 253 253 253 253 254 256 259 264 268 271 271 271 271 271 270 269 268 268 269 269 269 269 270 269 268 266 264 265 268 271 272 273 274 275 275 275 272 271 271 272 273 272 270 267 265 264 264 266 267 269 271 273 274 275 275 275 275 275 276 276 273 267 260 255 251 249 248 247 246 245 245 245 246 246 245 244 242 239
260 260 260 259 258 257 256 254 253 252 251 251 252 254 257 260 263 266 266 266 266 265 264 264 264 264 264 263 263 263 263 264 265 266 265 265 266 268 271 274 275 275 273 271 269 269 270 270 269 267 265 263 262 262 263 264 266 268 270 272 274 276 277 278 279 281 282 280 276 268 259 252 248 246 245 245 245 245 246 246 247 247 246 245 243 240
260 261 261 262 262 261 259 257 255 253 252 251 251 252 254 256 257 258 259 260 261 260 258 258 258 258 258 259 260 261 261 259 260 262 264 263 262 265 269 272 273 271 267 267 268 270 269 266 264 262 260 259 259 260 261 263 264 266 269 271 274 276 278 280 282 284 285 284 279 270 259 251 245 243 243 243 244 245 246 246 247 246 245 243 241 238
260 261 261 262 263 263 262 261 258 256 254 253 252 251 252 252 253 254 255 256 256 255 255 254 254 254 255 258 261 262 260 258 257 259 261 260 260 263 267 269 269 267 264 263 265 265 263 259 256 255 255 257 257 258 259 261 263 265 267 270 273 276 278 281 283 285 286 286 282 274 263 252 244 241 240 241 242 243 244 244 243 242 240 238 235 232
258 259 260 261 262 263 262 261 260 258 257 255 253 252 251 251 251 252 254 254 254 253 253 254 254 254 255 258 260 260 260 259 258 257 258 257 258 261 266 266 264 264 263 259 256 253 252 251 250 250 250 253 255 256 257 259 260 262 264 268 271 274 276 279 281 283 285 285 283 278 269 257 247 240 238 238 239 239 239 238 237 235 232 230 228 227
254 255 256 258 259 260 260 260 259 258 257 256 255 253 251 251 251 251 252 253 252 252 252 253 254 255 256 255 256 257 259 260 259 258 257 255 257 261 264 262 261 262 263 257 247 240 245 246 247 247 247 249 251 253 254 255 256 258 261 265 268 270 273 275 278 280 282 282 281 277 271 261 249 240 235 234 233 233 232 231 229 228 226 224 224 224
252 252 253 254 254 255 255 256 255 255 255 255 254 253 252 251 250 250 251 250 250 250 251 252 253 255 255 254 254 255 258 261 261 260 259 257 260 263 264 260 259 261 263 258 244 233 240 242 243 243 243 243 245 248 250 251 252 255 258 261 263 265 269 272 275 276 277 275 271 267 263 256 248 239 232 229 227 227 228 228 227 226 225 223 223 223
252 251 251 251 251 251 251 252 253 253 254 254 255 255 254 253 252 251 250 250 250 249 249 250 251 253 254 255 255 256 258 259 260 260 260 259 261 263 263 260 258 258 259 254 242 233 234 236 237 236 235 236 238 240 243 245 248 250 253 254 256 259 265 269 271 271 269 263 252 243 240 238 236 232 228 224 222 222 223 226 229 229 228 225 223 221
251 250 250 250 250 250 250 251 252 253 254 256 258 259 259 258 256 255 254 252 251 251 250 249 250 250 252 253 255 256 257 257 258 258 258 258 259 260 260 257 256 255 252 244 235 230 229 232 232 226 221 227 230 232 233 236 239 243 245 246 248 252 257 261 259 255 255 243 230 214 204 204 208 213 214 213 212 211 212 216 220 224 225 224 222 219
249 248 248 249 249 249 250 250 250 251 253 256 258 260 261 261 260 259 258 257 256 255 254 253 251 251 250 251 253 255 256 256 255 255 256 256 257 258 256 253 253 253 248 239 231 226 224 226 224 215 205 208 214 220 221 223 225 230 235 240 241 242 242 241 233 224 223 211 199 184 173 171 174 179 183 187 191 194 197 199 202 206 209 212 213 212
246 246 246 246 247 247 248 248 249 250 252 254 256 258 259 259 260 259 259 258 257 256 255 255 255 254 253 252 252 253 254 255 254 254 255 257 258 256 252 251 252 252 247 239 231 225 221 216 210 204 196 189 186 189 198 203 206 211 219 227 228 225 221 215 203 192 184 179 172 161 153 153 155 157 159 164 171 177 183 186 187 188 190 192 195 198
245 244 245 245 245 245 246 248 249 250 251 253 255 257 257 256 255 254 253 252 251 251 251 252 253 254 254 255 254 254 255 255 255 256 257 259 259 256 251 250 252 252 246 237 229 223 217 206 196 188 182 178 166 156 160 169 176 179 182 188 191 191 189 183 173 163 157 152 147 144 143 146 147 147 148 152 158 165 169 172 173 174 174 175 178 181
246 245 245 245 245 245 247 248 250 252 254 256 257 257 255 252 250 249 249 250 250 250 250 250 251 252 252 253 254 255 256 256 256 257 258 259 259 255 250 250 250 249 244 235 227 219 209 196 183 172 166 163 158 151 147 147 145 144 146 154 159 159 155 154 158 157 146 138 134 135 136 138 139 140 142 146 151 155 156 157 158 159 160 162 163 165
245 244 245 245 246 246 248 250 252 254 256 257 257 255 253 251 251 253 255 256 258 258 258 258 257 257 256 256 256 256 257 257 257 257 257 257 256 253 250 247 244 241 236 229 220 211 200 189 179 170 160 154 149 147 146 142 137 132 133 137 140 139 137 137 137 135 131 129 127 127 127 129 132 134 135 139 143 144 144 143 144 145 148 149 150 152
245 245 245 246 248 249 249 251 253 255 256 255 254 254 254 255 257 260 263 264 266 266 266 265 263 262 261 260 259 258 258 257 255 254 253 252 251 250 247 244 238 232 225 217 208 198 189 182 177 171 164 154 145 140 139 136 133 131 131 127 122 120 123 125 125 124 124 124 123 122 122 124 126 128 129 131 133 133 134 134 136 138 140 141 140 140
244 244 244 245 247 247 248 249 251 252 253 253 254 256 258 260 262 264 266 267 268 267 266 263 261 258 257 256 255 254 252 249 247 245 244 244 244 243 242 237 231 224 215 206 196 189 183 176 169 163 158 152 146 142 138 134 132 132 131 124 118 117 120 121 120 120 121 121 121 121 121 122 123 123 123 123 124 125 127 128 130 131 134 136 136 136
244 243 243 243 244 245 247 249 251 253 256 258 260 261 263 265 266 266 266 264 261 258 254 249 245 241 240 239 240 239 236 233 230 230 230 232 233 233 230 226 221 215 207 196 187 181 178 171 162 154 149 146 143 139 135 134 133 132 128 123 121 121 120 118 119 119 118 118 119 120 120 119 119 118 118 118 117 119 121 123 124 125 126 127 130 132
243 244 246 247 249 251 253 255 257 260 262 264 265 266 267 268 267 264 259 251 243 236 229 225 222 220 217 214 213 212 210 209 209 210 213 216 218 217 215 212 209 204 198 189 181 175 172 167 158 150 146 145 142 137 132 131 130 129 127 125 123 119 112 111 114 117 117 116 117 117 117 116 115 115 116 116 116 116 117 119 120 120 121 123 124 125
245 247 250 252 255 257 259 261 263 265 266 266 266 266 265 262 257 248 238 227 218 210 203 202 202 203 199 192 186 184 184 187 190 193 196 200 203 204 203 200 196 193 190 184 176 170 165 159 153 147 145 143 140 136 133 130 129 127 126 127 126 121 114 112 114 115 115 115 115 115 114 113 113 114 115 114 114 114 114 115 115 116 118 120 121 122
247 250 252 255 257 259 261 263 264 265 265 264 261 257 252 243 230 218 209 202 196 191 188 188 189 185 178 173 169 166 166 168 172 177 181 186 191 195 196 193 189 185 182 177 171 164 157 150 145 143 142 140 137 133 129 128 127 126 125 125 125 122 119 118 117 116 114 114 114 114 114 114 115 115 113 112 111 110 110 110 111 111 113 115 118 119
249 252 254 256 258 259 261 262 261 260 256 251 244 236 227 215 203 196 192 188 184 179 179 182 181 174 165 160 158 156 154 154 156 160 165 172 179 186 189 188 185 181 176 170 165 159 153 145 141 138 137 135 132 129 127 126 125 123 122 122 122 121 119 118 117 116 115 114 114 114 115 118 118 116 112 110 108 108 108 108 109 109 110 112 114 116
253 254 255 256 257 257 256 254 250 242 232 223 217 211 203 195 188 184 182 180 176 172 170 172 172 166 158 154 152 150 148 146 147 150 153 159 165 171 176 177 177 175 172 166 160 153 147 142 138 135 133 129 125 123 124 125 123 121 119 120 121 120 118 116 115 115 115 115 114 114 116 118 117 114 110 108 106 105 105 105 106 107 109 110 111 112
257 255 254 252 249 244 238 230 220 210 202 198 195 191 187 183 179 176 173 172 170 167 163 162 160 156 152 149 149 148 147 144 144 145 148 151 156 161 164 165 166 166 164 161 156 149 143 138 135 132 131 127 123 121 121 122 122 121 119 120 121 120 118 117 116 116 116 116 115 116 116 116 114 112 110 107 104 102 101 102 103 105 107 109 110 111
251 245 238 232 222 211 201 194 189 185 181 179 176 174 173 173 172 170 166 165 163 160 157 155 152 149 145 143 144 145 145 143 143 144 146 148 152 155 157 158 158 156 154 151 148 144 140 136 132 130 128 126 123 121 122 122 122 121 121 121 121 120 119 118 118 118 117 117 117 117 117 116 116 115 113 108 103 100 99 99 100 102 104 107 109 110
215 207 201 193 185 178 174 172 170 168 167 165 163 162 162 163 164 164 162 160 157 154 151 149 147 144 141 139 139 139 140 140 141 142 143 147 150 152 153 154 153 149 144 140 137 135 131 127 125 124 124 123 122 121 120 121 122 122 121 120 120 121 120 119 119 119 119 119 118 118 118 117 117 117 116 111 106 102 100 98 97 97 100 103 106 108
178 177 175 171 166 162 160 160 159 158 158 157 157 156 155 155 156 156 156 154 151 147 145 144 142 139 136 135 135 136 136 138 138 138 140 144 147 147 148 149 149 145 138 132 128 125 122 116 112 110 114 118 119 120 119 120 121 121 119 119 120 122 121 120 121 121 121 120 120 120 120 118 117 116 115 113 109 104 100 97 95 95 97 100 102 104
Height
1377 1376 1375 1375 1375 1373 1370 1370 1371 1370 1368 1367 1367 1367 1366 1365 1365 1364 1363 1363 1362 1361 1360 1359 1358 1357 1356 1355 1354 1354 1353 1352 1352 1351 1351 1351 1351 1351 1351 1352 1352 1353 1353 1353 1353 1353 1353 1353 1353 1353 1353 1354 1355 1355 1356 1356 1357 1358 1359 1360 1361 1361 1362 1362 1362 1363 1363 1364 1365 1365 1366 1366 1366 1367 1367 1368 1369 1370 1371 1372 1373 1374 1376 1377 1379 1380
1374 1373 1373 1372 1372 1370 1367 1367 1368 1368 1365 1364 1363 1364 1363 1362 1361 1360 1360 1360 1359 1357 1356 1355 1355 1354 1352 1350 1350 1350 1350 1349 1348 1347 1347 1347 1347 1347 1347 1348 1349 1349 1350 1349 1349 1348 1348 1348 1348 1349 1350 1350 1351 1352 1352 1352 1353 1354 1355 1355 1356 1357 1358 1358 1359 1359 1360 1360 1360 1361 1362 1363 1363 1364 1364 1365 1366 1367 1368 1368 1369 1370 1372 1374 1375 1376
1371 1370 1369 1369 1369 1367 1364 1363 1364 1364 1363 1361 1360 1360 1360 1359 1357 1356 1356 1355 1355 1353 1352 1351 1351 1350 1348 1346 1345 1345 1345 1345 1344 1343 1343 1343 1343 1343 1343 1343 1344 1345 1346 1345 1345 1344 1344 1344 1345 1345 1346 1347 1347 1348 1348 1349 1349 1350 1350 1351 1352 1353 1353 1354 1355 1355 1356 1356 1357 1358 1358 1359 1360 1360 1361 1362 1363 1364 1365 1365 1365 1366 1368 1370 1371 1373
1368 1367 1365 1365 1365 1363 1361 1360 1360 1360 1359 1358 1357 1356 1356 1355 1354 1353 1353 1352 1351 1349 1348 1347 1346 1345 1344 1342 1341 1341 1341 1341 1340 1340 1340 1340 1339 1339 1339 1339 1340 1341 1341 1341 1341 1340 1340 1340 1341 1342 1342 1343 1343 1344 1344 1345 1345 1346 1346 1347 1348 1349 1350 1350 1350 1351 1352 1352 1353 1354 1355 1355 1356 1357 1358 1360 1361 1361 1362 1362 1362 1363 1364 1365 1367 1369
1364 1363 1361 1362 1361 1359 1357 1357 1357 1356 1355 1354 1353 1353 1352 1351 1350 1350 1349 1349 1348 1346 1344 1343 1343 1342 1340 1339 1338 1337 1337 1337 1337 1336 1336 1336 1335 1335 1335 1335 1335 1336 1337 1337 1337 1337 1337 1337 1337 1338 1338 1339 1340 1340 1340 1341 1341 1342 1342 1343 1344 1345 1345 1346 1347 1347 1348 1349 1350 1350 1351 1351 1352 1354 1355 1357 1358 1358 1358 1358 1359 1359 1360 1361 1362 1364
1360 1359 1358 1358 1357 1355 1354 1354 1354 1353 1352 1350 1349 1349 1348 1347 1346 1346 1345 1345 1344 1343 1342 1341 1340 1339 1337 1336 1335 1335 1334 1334 1333 1333 1332 1331 1331 1331 1331 1331 1331 1332 1333 1333 1333 1333 1333 1333 1334 1334 1335 1335 1335 1336 1336 1337 1337 1338 1339 1339 1340 1340 1341 1342 1343 1343 1344 1345 1345 1346 1347 1347 1349 1350 1352 1354 1355 1355 1355 1355 1355 1355 1356 1356 1358 1359
1356 1355 1355 1354 1353 1352 1351 1351 1350 1350 1349 1347 1346 1345 1345 1344 1343 1342 1341 1340 1340 1340 1339 1337 1336 1335 1334 1333 1332 1331 1330 1330 1329 1329 1328 1327 1326 1326 1326 1327 1327 1328 1328 1329 1329 1329 1329 1329 1330 1330 1330 1331 1331 1332 1332 1333 1334 1334 1335 1335 1336 1337 1337 1338 1338 1339 1340 1340 1341 1342 1343 1343 1344 1345 1348 1350 1351 1351 1351 1351 1351 1351 1352 1352 1353 1355
1352 1351 1351 1351 1349 1348 1347 1346 1346 1346 1346 1345 1343 1342 1341 1340 1340 1339 1337 1337 1336 1336 1335 1334 1332 1331 1330 1329 1328 1327 1326 1326 1325 1324 1323 1323 1322 1322 1322 1322 1322 1323 1323 1324 1324 1325 1325 1325 1325 1326 1326 1327 1327 1328 1328 1329 1330 1330 1331 1332 1332 1333 1333 1334 1334 1335 1335 1336 1337 1337 1338 1339 1340 1341 1343 1344 1346 1347 1347 1348 1348 1348 1348 1349 1349 1350
1350 1348 1348 1347 1346 1344 1343 1341 1342 1343 1343 1342 1340 1339 1338 1336 1336 1335 1334 1334 1333 1332 1332 1330 1329 1327 1326 1325 1325 1324 1323 1322 1321 1320 1320 1319 1319 1318 1318 1318 1318 1319 1319 1319 1320 1320 1321 1321 1321 1321 1322 1322 1323 1324 1324 1325 1326 1327 1327 1328 1329 1329 1330 1330 1330 1331 1331 1332 1333 1333 1334 1335 1335 1336 1338 1339 1341 1342 1343 1344 1344 1344 1344 1345 1345 1346
1347 1346 1345 1344 1343 1341 1340 1338 1338 1339 1340 1339 1337 1336 1335 1334 1332 1331 1331 1330 1329 1329 1329 1328 1326 1324 1322 1322 1321 1320 1319 1318 1318 1317 1316 1315 1315 1315 1315 1315 1315 1315 1315 1315 1315 1316 1316 1316 1317 1317 1318 1319 1319 1320 1320 1321 1322 1323 1324 1324 1325 1325 1326 1326 1327 1327 1328 1328 1329 1329 1330 1330 1331 1332 1333 1334 1335 1337 1339 1339 1340 1340 1340 1340 1341 1342
1344 1343 1343 1341 1339 1338 1337 1335 1335 1336 1337 1336 1334 1332 1331 1330 1330 1329 1327 1326 1325 1326 1325 1324 1323 1321 1320 1319 1318 1317 1317 1316 1315 1314 1313 1312 1312 1311 1311 1311 1311 1310 1310 1311 1311 1311 1312 1312 1313 1313 1314 1315 1315 1316 1317 1317 1318 1319 1320 1320 1321 1321 1322 1322 1323 1323 1324 1324 1325 1325 1326 1326 1327 1328 1328 1329 1330 1332 1334 1335 1335 1335 1335 1336 1337 1338
1340 1340 1339 1338 1336 1335 1335 1333 1333 1334 1334 1332 1330 1328 1327 1327 1327 1326 1325 1323 1322 1322 1322 1320 1319 1318 1317 1316 1315 1315 1315 1314 1312 1311 1310 1310 1309 1309 1309 1308 1307 1307 1306 1307 1307 1307 1308 1308 1309 1310 1310 1311 1311 1312 1313 1314 1314 1315 1315 1316 1316 1317 1317 1318 1318 1319 1319 1320 1320 1321 1322 1322 1323 1323 1324 1324 1325 1326 1328 1330 1330 1331 1331 1332 1333 1334
1337 1336 1335 1334 1333 1333 1332 1331 1331 1330 1330 1328 1326 1325 1324 1324 1324 1324 1321 1320 1319 1319 1319 1317 1316 1315 1314 1314 1313 1312 1312 1311 1310 1309 1308 1307 1307 1306 1306 1305 1305 1304 1303 1303 1303 1303 1304 1304 1305 1305 1306 1307 1307 1308 1309 1310 1310 1311 1311 1312 1312 1313 1313 1313 1314 1314 1315 1315 1316 1316 1317 1318 1318 1319 1319 1319 1320 1321 1323 1324 1325 1326 1327 1327 1328 1329
1333 1332 1331 1330 1329 1328 1328 1328 1327 1326 1325 1324 1323 1322 1321 1321 1321 1320 1319 1317 1316 1316 1316 1315 1313 1312 1311 1310 1310 1309 1309 1308 1307 1306 1305 1304 1304 1303 1303 1302 1301 1300 1300 1299 1299 1299 1300 1300 1300 1301 1302 1303 1303 1304 1305 1305 1306 1306 1307 1307 1308 1308 1308 1309 1309 1310 1310 1310 1311 1312 1313 1313 1314 1314 1315 1315 1315 1316 1317 1319 1320 1322 1322 1323 1324 1325
1330 1329 1328 1326 1325 1324 1324 1324 1323 1322 1321 1320 1320 1319 1319 1318 1317 1317 1316 1314 1314 1314 1314 1312 1310 1308 1308 1307 1306 1306 1306 1305 1304 1303 1302 1300 1300 1300 1300 1299 1298 1297 1297 1296 1295 1295 1296 1297 1297 1297 1298 1299 1300 1300 1301 1301 1302 1302 1303 1303 1303 1304 1304 1304 1305 1305 1305 1306 1307 1307 1308 1309 1310 1310 1310 1310 1311 1311 1312 1314 1315 1317 1318 1319 1320 1320
1327 1326 1325 1323 1321 1321 1320 1320 1319 1318 1317 1317 1317 1316 1315 1315 1314 1313 1313 1312 1311 1311 1310 1308 1306 1305 1304 1303 1303 1303 1303 1302 1300 1300 1298 1297 1296 1297 1298 1297 1295 1295 1294 1293 1293 1292 1293 1293 1294 1294 1294 1295 1295 1296 1297 1297 1297 1298 1298 1298 1299 1299 1300 1300 1300 1301 1301 1302 1302 1303 1304 1305 1305 1305 1306 1306 1306 1307 1307 1308 1310 1312 1313 1314 1315 1316
1323 1322 1321 1320 1319 1318 1317 1317 1316 1315 1314 1314 1313 1313 1312 1311 1311 1310 1310 1309 1308 1308 1306 1305 1304 1302 1300 1300 1300 1300 1300 1299 1297 1296 1295 1295 1294 1294 1295 1295 1294 1292 1291 1291 1290 1290 1290 1290 1290 1290 1290 1291 1291 1292 1293 1293 1293 1294 1294 1294 1295 1295 1295 1295 1296 1296 1297 1298 1298 1299 1300 1300 1301 1301 1301 1302 1302 1302 1303 1303 1305 1307 1308 1309 1310 1311
1319 1318 1317 1316 1315 1314 1314 1314 1313 1312 1310 1310 1309 1309 1308 1308 1308 1307 1306 1306 1305 1304 1303 1302 1301 1300 1298 1297 1296 1296 1297 1296 1295 1294 1293 1292 1291 1291 1292 1292 1291 1290 1289 1288 1288 1287 1287 1287 1287 1287 1287 1288 1288 1288 1289 1289 1289 1290 1290 1290 1290 1291 1291 1291 1292 1292 1293 1293 1294 1295 1295 1296 1296 1297 1297 1297 1297 1298 1298 1299 1300 1301 1303 1304 1305 1307
1315 1314 1313 1312 1311 1310 1310 1310 1310 1309 1308 1306 1306 1306 1305 1305 1305 1304 1303 1302 1301 1300 1300 1299 1297 1296 1295 1293 1293 1293 1294 1293 1292 1291 1291 1289 1289 1289 1290 1289 1288 1286 1285 1285 1285 1285 1284 1284 1283 1284 1284 1285 1285 1285 1285 1285 1285 1286 1286 1286 1287 1287 1287 1287 1287 1288 1289 1289 1290 1290 1291 1291 1291 1292 1292 1293 1293 1293 1294 1294 1295 1296 1298 1299 1301 1302
1310 1310 1309 1308 1307 1307 1306 1306 1306 1305 1305 1304 1303 1303 1302 1301 1301 1300 1299 1298 1298 1297 1296 1295 1294 1292 1291 1290 1290 1290 1291 1290 1290 1289 1288 1286 1286 1286 1287 1286 1285 1284 1283 1282 1282 1282 1282 1281 1280 1280 1281 1281 1281 1281 1281 1282 1282 1282 1283 1283 1283 1283 1283 1283 1283 1284 1284 1285 1285 1286 1286 1286 1287 1287 1287 1288 1288 1288 1289 1289 1290 1291 1292 1294 1295 1297
1306 1304 1304 1304 1304 1303 1302 1301 1301 1302 1302 1301 1301 1300 1299 1298 1297 1296 1295 1295 1294 1293 1293 1291 1290 1289 1288 1288 1287 1287 1288 1288 1287 1286 1285 1284 1283 1283 1284 1283 1282 1281 1280 1279 1279 1279 1279 1278 1278 1278 1278 1278 1278 1278 1278 1279 1279 1279 1279 1279 1279 1279 1279 1279 1279 1280 1280 1281 1281 1281 1281 1281 1281 1282 1282 1282 1283 1283 1284 1284 1285 1286 1287 1289 1290 1292
1301 1299 1299 1300 1300 1299 1298 1297 1297 1297 1298 1298 1298 1296 1295 1294 1293 1292 1291 1291 1290 1290 1289 1288 1287 1286 1286 1285 1285 1285 1285 1285 1284 1283 1283 1282 1280 1280 1281 1281 1280 1279 1278 1277 1277 1277 1276 1275 1275 1275 1275 1275 1275 1275 1275 1275 1276 1276 1276 1276 1276 1276 1276 1276 1276 1276 1276 1276 1277 1277 1276 1276 1276 1276 1277 1277 1278 1279 1279 1280 1280 1281 1282 1284 1285 1287
1297 1295 1295 1295 1295 1295 1294 1294 1293 1293 1294 1295 1294 1293 1292 1291 1289 1288 1288 1288 1287 1287 1286 1285 1285 1285 1284 1283 1282 1282 1281 1281 1281 1281 1281 1279 1277 1277 1278 1278 1277 1276 1275 1275 1275 1274 1273 1273 1272 1272 1272 1272 1272 1272 1273 1273 1273 1273 1273 1273 1273 1273 1272 1272 1272 1272 1272 1272 1272 1272 1271 1271 1271 1271 1271 1272 1273 1274 1274 1275 1276 1277 1278 1279 1281 1283
1293 1291 1291 1291 1291 1290 1290 1290 1290 1290 1290 1290 1291 1290 1290 1288 1287 1286 1285 1285 1285 1284 1284 1284 1283 1282 1281 1280 1279 1279 1279 1278 1278 1278 1278 1276 1274 1274 1275 1276 1275 1274 1272 1272 1273 1272 1270 1270 1270 1270 1269 1269 1269 1270 1270 1270 1270 1270 1270 1270 1270 1269 1269 1268 1268 1268 1268 1267 1267 1266 1266 1266 1265 1266 1266 1267 1268 1269 1270 1271 1272 1273 1274 1276 1277 1279
1288 1287 1287 1286 1286 1286 1286 1286 1286 1286 1287 1287 1287 1287 1286 1285 1284 1283 1283 1282 1282 1282 1282 1282 1281 1279 1278 1278 1277 1276 1276 1276 1275 1275 1275 1273 1272 1272 1272 1273 1273 1272 1270 1270 1270 1270 1268 1268 1267 1267 1267 1267 1267 1267 1267 1267 1267 1268 1267 1267 1267 1266 1265 1264 1264 1263 1263 1262 1261 1261 1260 1260 1260 1261 1261 1262 1263 1264 1266 1267 1269 1270 1271 1272 1274 1275
1283 1282 1282 1282 1282 1282 1282 1282 1282 1283 1283 1284 1284 1284 1284 1283 1282 1281 1280 1280 1280 1280 1280 1279 1277 1276 1275 1275 1274 1274 1274 1273 1273 1272 1272 1272 1270 1269 1269 1269 1270 1269 1269 1269 1268 1267 1266 1265 1265 1265 1265 1265 1265 1265 1265 1265 1265 1265 1265 1264 1264 1263 1262 1261 1260 1259 1258 1256 1255 1255 1255 1255 1255 1256 1257 1258 1259 1260 1262 1264 1265 1267 1268 1269 1271 1272
1278 1277 1277 1277 1277 1278 1278 1278 1278 1279 1279 1280 1280 1281 1281 1281 1281 1279 1277 1276 1277 1277 1277 1276 1274 1272 1272 1271 1270 1270 1271 1271 1270 1269 1269 1270 1269 1268 1266 1267 1267 1267 1267 1266 1265 1264 1264 1263 1263 1263 1263 1263 1263 1263 1263 1263 1263 1262 1262 1261 1260 1259 1259 1258 1256 1254 1253 1251 1250 1250 1250 1250 1250 1251 1252 1254 1255 1257 1259 1260 1262 1264 1265 1267 1268 1269
1273 1273 1273 1273 1273 1273 1273 1273 1274 1274 1274 1275 1276 1277 1278 1279 1278 1276 1273 1273 1274 1274 1274 1272 1271 1270 1269 1267 1266 1267 1268 1268 1267 1266 1266 1268 1267 1265 1264 1265 1265 1265 1265 1264 1263 1262 1262 1261 1261 1260 1260 1260 1260 1261 1260 1260 1260 1260 1259 1258 1258 1256 1255 1254 1253 1251 1249 1247 1245 1245 1245 1246 1246 1247 1249 1250 1252 1253 1255 1257 1259 1261 1262 1264 1265 1266
1268 1268 1268 1269 1269 1269 1269 1269 1269 1269 1269 1270 1271 1273 1274 1274 1273 1271 1269 1270 1271 1271 1270 1269 1268 1267 1265 1264 1264 1264 1264 1264 1264 1264 1264 1264 1263 1262 1262 1263 1263 1263 1263 1262 1262 1261 1260 1259 1258 1258 1258 1258 1258 1258 1258 1258 1258 1257 1256 1255 1255 1254 1253 1251 1250 1248 1245 1244 1242 1241 1241 1242 1243 1244 1245 1246 1248 1250 1252 1254 1256 1258 1259 1260 1261 1263
1264 1264 1264 1264 1264 1264 1264 1264 1264 1264 1264 1265 1267 1268 1269 1269 1269 1267 1266 1267 1268 1268 1266 1265 1264 1264 1263 1262 1262 1261 1259 1259 1261 1261 1261 1261 1260 1259 1260 1261 1260 1260 1260 1261 1261 1260 1258 1257 1256 1256 1256 1255 1256 1256 1256 1255 1255 1254 1254 1253 1252 1251 1250 1249 1247 1245 1243 1241 1239 1238 1238 1238 1239 1240 1242 1243 1245 1247 1249 1251 1253 1254 1256 1257 1258 1259
1259 1259 1259 1259 1259 1260 1260 1260 1260 1260 1260 1261 1262 1263 1264 1264 1264 1264 1263 1264 1264 1264 1263 1262 1261 1261 1260 1260 1259 1257 1255 1256 1258 1259 1258 1258 1257 1257 1258 1258 1258 1258 1258 1259 1259 1259 1257 1255 1254 1254 1254 1254 1254 1254 1253 1253 1252 1252 1251 1250 1250 1249 1248 1246 1245 1243 1241 1239 1237 1236 1236 1236 1236 1238 1239 1240 1242 1244 1246 1248 1250 1251 1252 1254 1255 1256
1255 1256 1255 1255 1256 1256 1256 1256 1256 1256 1256 1257 1258 1258 1259 1259 1259 1259 1259 1259 1260 1260 1259 1259 1258 1258 1258 1257 1256 1254 1253 1254 1255 1256 1255 1255 1255 1255 1255 1255 1255 1256 1256 1257 1257 1257 1256 1254 1253 1252 1252 1252 1252 1251 1251 1250 1250 1249 1249 1248 1248 1246 1245 1244 1243 1241 1239 1237 1236 1235 1234 1234 1234 1235 1237 1238 1240 1242 1244 1245 1247 1249 1250 1251 1253 1254
1252 1252 1252 1252 1252 1252 1252 1252 1252 1252 1252 1253 1253 1254 1254 1255 1255 1255 1255 1255 1255 1256 1256 1256 1255 1255 1254 1254 1252 1251 1250 1252 1253 1253 1253 1253 1254 1253 1253 1253 1253 1254 1254 1255 1255 1255 1254 1253 1251 1250 1250 1250 1249 1249 1249 1248 1248 1247 1247 1246 1245 1245 1244 1243 1241 1240 1239 1236 1235 1234 1233 1233 1233 1234 1235 1236 1238 1240 1242 1244 1245 1247 1248 1249 1251 1252
1248 1248 1248 1248 1248 1248 1248 1248 1248 1248 1249 1249 1249 1249 1250 1250 1251 1251 1251 1251 1251 1252 1252 1252 1252 1252 1251 1251 1250 1249 1248 1249 1250 1250 1250 1251 1251 1251 1250 1251 1251 1252 1253 1253 1253 1253 1252 1251 1250 1249 1249 1248 1248 1248 1247 1246 1246 1245 1245 1244 1244 1244 1243 1241 1240 1239 1238 1236 1235 1233 1232 1232 1232 1233 1234 1235 1236 1238 1240 1243 1245 1246 1248 1249 1249 1250
1244 1244 1244 1244 1244 1244 1244 1245 1245 1245 1245 1245 1245 1246 1246 1246 1246 1247 1247 1247 1247 1247 1247 1248 1248 1248 1248 1248 1247 1246 1245 1246 1248 1248 1247 1248 1248 1249 1249 1249 1249 1249 1250 1250 1251 1251 1250 1250 1249 1248 1248 1247 1247 1246 1246 1245 1244 1244 1244 1243 1243 1242 1241 1240 1239 1239 1238 1236 1235 1234 1232 1231 1232 1233 1234 1235 1236 1237 1239 1241 1244 1246 1247 1248 1249 1249
1239 1239 1240 1240 1241 1241 1241 1241 1242 1242 1242 1242 1242 1243 1243 1243 1243 1243 1243 1244 1244 1244 1244 1244 1244 1244 1244 1244 1244 1243 1242 1243 1245 1245 1244 1244 1245 1246 1246 1246 1246 1247 1248 1249 1249 1249 1249 1248 1248 1247 1247 1246 1246 1245 1245 1244 1244 1243 1243 1242 1242 1241 1240 1239 1239 1238 1237 1236 1235 1234 1232 1231 1232 1233 1234 1235 1236 1237 1239 1241 1243 1244 1245 1247 1247 1248
1235 1235 1236 1237 1237 1238 1238 1238 1238 1239 1239 1239 1239 1239 1240 1240 1240 1241 1241 1241 1241 1241 1241 1241 1241 1241 1241 1241 1241 1240 1239 1240 1242 1242 1241 1241 1242 1243 1244 1244 1244 1245 1245 1246 1246 1246 1247 1247 1246 1246 1246 1245 1244 1244 1244 1244 1243 1242 1241 1241 1240 1240 1239 1239 1238 1237 1237 1236 1235 1234 1233 1232 1232 1233 1234 1236 1237 1237 1239 1241 1243 1244 1244 1245 1246 1246
1232 1232 1233 1234 1234 1234 1234 1234 1234 1235 1235 1235 1236 1236 1237 1237 1238 1238 1238 1238 1239 1239 1239 1239 1239 1239 1239 1239 1238 1237 1237 1238 1239 1239 1238 1239 1239 1240 1241 1241 1242 1243 1243 1244 1244 1244 1245 1245 1244 1244 1244 1244 1244 1244 1244 1244 1243 1242 1241 1240 1240 1239 1239 1239 1239 1239 1238 1236 1235 1235 1234 1234 1233 1234 1234 1236 1237 1237 1239 1241 1243 1244 1244 1245 1245 1246
1229 1229 1229 1230 1231 1231 1231 1231 1231 1231 1232 1232 1233 1234 1234 1234 1234 1235 1235 1235 1235 1235 1236 1236 1235 1235 1235 1235 1235 1234 1234 1235 1235 1235 1235 1236 1236 1237 1238 1239 1240 1240 1241 1242 1243 1243 1243 1243 1243 1243 1243 1243 1243 1244 1244 1243 1243 1242 1242 1241 1240 1240 1239 1239 1239 1239 1238 1237 1237 1236 1236 1235 1235 1235 1236 1237 1237 1238 1239 1241 1243 1244 1245 1244 1245 1245
1226 1226 1226 1227 1227 1228 1228 1228 1228 1229 1229 1230 1230 1231 1231 1231 1231 1232 1232 1232 1232 1232 1232 1232 1232 1232 1232 1231 1231 1231 1231 1232 1232 1232 1233 1233 1234 1235 1236 1237 1238 1238 1239 1240 1241 1241 1242 1242 1242 1242 1242 1242 1242 1243 1243 1243 1243 1243 1243 1242 1242 1242 1242 1241 1240 1240 1239 1239 1238 1238 1238 1238 1238 1238 1238 1238 1239 1239 1239 1241 1243 1244 1245 1245 1245 1245
1224 1224 1224 1224 1224 1225 1225 1225 1226 1226 1227 1228 1228 1228 1228 1228 1229 1229 1229 1229 1229 1229 1229 1229 1229 1229 1229 1229 1229 1229 1229 1229 1229 1230 1230 1231 1232 1233 1234 1234 1235 1236 1237 1239 1240 1240 1240 1240 1241 1241 1241 1241 1241 1242 1242 1243 1243 1243 1243 1243 1243 1244 1244 1243 1242 1242 1241 1241 1240 1240 1240 1240 1240 1240 1240 1240 1241 1241 1242 1243 1244 1245 1245 1246 1246 1246
1222 1222 1222 1222 1223 1223 1223 1224 1224 1225 1225 1226 1226 1226 1226 1226 1226 1226 1226 1226 1226 1226 1226 1226 1226 1226 1226 1226 1226 1227 1227 1227 1228 1228 1229 1229 1230 1231 1232 1233 1234 1234 1236 1237 1238 1239 1239 1239 1240 1240 1240 1241 1241 1241 1242 1243 1243 1244 1244 1244 1244 1244 1245 1245 1245 1244 1244 1243 1243 1243 1243 1243 1243 1244 1244 1244 1244 1245 1246 1246 1246 1246 1246 1246 1247 1247
1220 1220 1220 1221 1221 1221 1222 1222 1223 1223 1223 1224 1224 1223 1223 1224 1224 1224 1224 1224 1224 1224 1224 1224 1224 1224 1224 1225 1225 1225 1226 1226 1227 1228 1228 1229 1229 1230 1231 1232 1233 1234 1234 1235 1236 1237 1238 1239 1239 1240 1240 1241 1241 1241 1241 1242 1243 1244 1244 1245 1245 1245 1246 1247 1248 1247 1246 1246 1246 1246 1246 1246 1246 1246 1247 1247 1247 1248 1249 1250 1250 1250 1249 1249 1249 1249
1218 1219 1219 1219 1219 1220 1220 1220 1221 1221 1221 1221 1221 1221 1221 1222 1222 1222 1222 1223 1223 1223 1223 1223 1223 1224 1224 1224 1224 1224 1225 1226 1226 1227 1228 1229 1229 1230 1231 1232 1233 1234 1234 1235 1235 1236 1238 1238 1239 1239 1240 1241 1241 1241 1241 1242 1243 1244 1245 1246 1246 1246 1247 1248 1249 1249 1249 1249 1249 1249 1249 1249 1249 1249 1249 1250 1251 1252 1253 1253 1253 1253 1253 1253 1252 1253
1217 1217 1217 1218 1218 1218 1219 1219 1219 1219 1219 1219 1219 1220 1220 1220 1221 1221 1222 1222 1222 1222 1222 1222 1222 1223 1223 1224 1224 1224 1225 1225 1226 1227 1227 1228 1229 1230 1230 1231 1232 1233 1234 1235 1236 1236 1237 1238 1239 1240 1240 1241 1241 1241 1242 1243 1244 1245 1246 1247 1247 1247 1248 1249 1250 1250 1251 1251 1251 1252 1252 1252 1252 1251 1252 1253 1254 1255 1256 1257 1257 1258 1258 1258 1258 1258
1215 1216 1216 1216 1216 1217 1217 1217 1217 1218 1218 1218 1219 1219 1219 1220 1220 1221 1221 1221 1221 1222 1222 1222 1222 1222 1223 1223 1224 1224 1224 1225 1226 1227 1227 1228 1229 1229 1230 1231 1232 1233 1234 1235 1236 1237 1238 1238 1239 1240 1241 1241 1242 1243 1243 1244 1244 1246 1247 1248 1248 1249 1249 1250 1251 1251 1252 1253 1253 1254 1254 1254 1254 1253 1254 1255 1256 1258 1259 1259 1260 1261 1262 1262 1262 1263
1214 1215 1215 1215 1215 1216 1216 1216 1217 1217 1218 1218 1218 1219 1219 1219 1220 1220 1221 1221 1221 1221 1222 1222 1222 1222 1223 1223 1224 1224 1224 1225 1226 1227 1228 1228 1229 1230 1230 1231 1232 1233 1234 1235 1236 1237 1238 1239 1240 1241 1242 1242 1243 1244 1245 1245 1246 1247 1249 1249 1250 1250 1250 1251 1252 1253 1254 1254 1255 1256 1256 1256 1255 1255 1256 1257 1258 1259 1261 1262 1263 1264 1264 1265 1265 1266
1214 1214 1214 1215 1215 1215 1216 1216 1217 1217 1217 1218 1218 1219 1219 1220 1220 1220 1221 1221 1221 1221 1222 1222 1222 1223 1223 1224 1224 1224 1224 1225 1226 1227 1228 1228 1229 1230 1231 1232 1233 1234 1235 1236 1237 1238 1239 1240 1242 1243 1243 1243 1244 1244 1246 1247 1248 1249 1250 1251 1251 1251 1252 1253 1254 1255 1255 1256 1256 1257 1258 1258 1258 1258 1259 1259 1260 1262 1263 1264 1265 1267 1268 1269 1269 1269
1214 1215 1215 1215 1215 1216 1216 1217 1217 1217 1218 1218 1219 1219 1219 1220 1220 1221 1221 1221 1222 1222 1222 1222 1223 1223 1224 1224 1225 1225 1225 1226 1226 1227 1228 1229 1229 1230 1231 1232 1233 1234 1236 1237 1238 1239 1240 1241 1243 1244 1245 1245 1245 1246 1248 1249 1250 1251 1251 1252 1252 1253 1254 1255 1256 1257 1257 1258 1258 1259 1259 1260 1261 1261 1261 1262 1263 1265 1266 1267 1269 1270 1271 1273 1273 1274
1215 1215 1216 1216 1216 1217 1217 1217 1218 1218 1218 1219 1219 1219 1220 1220 1221 1221 1222 1222 1222 1223 1223 1223 1224 1224 1224 1225 1226 1227 1227 1227 1227 1228 1229 1229 1230 1231 1232 1233 1234 1235 1237 1239 1240 1241 1242 1243 1244 1246 1247 1248 1249 1249 1249 1251 1252 1253 1253 1254 1254 1255 1255 1257 1258 1259 1259 1260 1260 1261 1261 1262 1264 1264 1264 1265 1266 1268 1269 1270 1272 1273 1275 1276 1277 1278
1216 1217 1217 1217 1217 1218 1218 1218 1218 1219 1219 1219 1219 1220 1220 1221 1222 1222 1222 1223 1223 1223 1224 1224 1225 1225 1226 1227 1227 1228 1228 1228 1229 1229 1230 1231 1232 1232 1233 1234 1235 1236 1237 1239 1241 1243 1244 1245 1247 1249 1250 1250 1251 1252 1252 1254 1254 1255 1255 1256 1257 1257 1258 1259 1260 1261 1261 1262 1263 1263 1264 1264 1266 1267 1267 1268 1269 1270 1271 1273 1275 1277 1278 1279 1280 1281